Kuchera_Ratio
2.5 3.6 4.8 6.3 6.9 7.0 7.6 7.6 7.6 7.4 6.7 6.7 6.5 6.1 6.2 6.2 6.5 6.9 7.2 7.4 7.6 8.0 8.1 8.6 8.4 8.1 8.0 8.1 8.0 8.7 9.0 9.2 9.0 8.8 9.3 9.3 9.3 9.3 9.7 9.2 8.8 8.7
3.1 3.7 4.7 6.1 6.5 6.9 7.9 8.2 8.6 8.7 8.6 8.8 8.9 8.9 8.9 8.8 9.1 9.0 8.9 9.0 8.9 8.7 8.8 9.0 8.6 8.5 9.1 9.3 9.2 9.5 9.6 9.6 10.3 8.6 10.0 10.1 9.8 9.6 9.9 9.5 9.3 8.6
5.0 5.1 5.4 5.2 5.3 5.7 6.4 7.1 7.7 8.1 8.5 8.9 9.3 10.1 9.8 10.6 10.8 10.8 6.7 10.6 10.4 10.1 10.0 9.0 10.3 8.6 9.3 9.6 9.5 9.9 10.3 10.5 11.0 9.9 10.5 10.7 9.9 10.3 9.9 9.4 9.5 9.5
6.0 5.8 6.0 6.2 6.0 6.0 6.4 6.8 7.5 8.2 8.6 8.7 9.2 10.2 10.6 10.6 10.9 11.1 11.4 11.6 11.4 11.3 11.1 11.2 11.2 11.2 11.1 10.5 10.8 10.8 10.8 11.0 10.5 10.4 11.3 11.1 10.8 10.6 10.7 10.3 10.3 10.2
6.0 6.5 7.0 7.5 7.8 8.0 8.6 9.1 9.6 10.0 10.5 10.7 11.3 11.8 11.6 11.3 11.4 11.6 12.1 12.3 12.2 12.2 12.0 12.0 12.0 12.0 12.1 12.1 12.0 12.5 12.1 12.1 11.6 11.9 12.3 12.5 12.0 11.8 11.5 11.3 12.0 12.1
6.6 7.3 7.6 7.8 8.1 8.3 8.7 9.1 9.5 9.8 10.3 10.8 11.0 11.3 11.5 11.7 12.0 12.1 12.2 12.3 12.4 12.5 12.7 12.7 12.6 12.5 12.5 12.6 12.8 13.0 12.8 12.7 12.3 12.4 12.8 13.0 12.6 11.9 12.0 12.1 12.5 12.8
8.0 8.4 8.7 9.1 9.4 9.8 10.1 10.3 10.7 10.9 11.3 11.5 11.3 11.5 11.8 12.0 12.2 12.2 12.3 12.4 12.5 12.7 12.9 13.1 13.2 13.3 13.2 13.2 13.3 13.4 13.4 13.5 13.4 13.5 13.6 13.4 13.1 13.2 12.6 12.9 13.0 13.2
10.0 10.1 10.5 10.8 10.9 11.3 11.6 11.6 12.0 12.1 12.2 12.3 12.3 12.3 12.3 12.3 12.3 12.4 12.4 12.7 12.9 13.1 13.2 13.4 13.4 13.4 13.5 13.5 13.4 13.5 13.7 13.9 13.9 14.0 14.2 14.3 14.1 14.3 14.1 13.8 13.7 14.3
12.0 12.1 12.2 12.2 12.2 12.4 12.4 12.5 12.6 12.6 12.6 12.7 12.7 12.6 12.4 12.2 12.2 12.2 12.4 12.6 12.8 13.0 13.1 13.2 13.2 13.2 13.3 13.4 13.4 13.6 13.8 14.0 14.3 14.6 14.7 14.7 14.8 14.8 14.7 14.6 14.7 14.9
12.9 13.1 13.1 13.1 13.1 13.2 13.1 13.1 13.1 13.0 13.0 13.0 12.9 12.9 12.7 12.6 12.5 12.5 12.6 12.7 12.8 13.0 13.0 13.1 13.2 13.3 13.4 13.4 13.6 13.9 13.9 14.2 14.4 14.6 14.8 14.9 15.1 15.4 15.4 15.3 15.4 15.5
13.8 13.8 13.8 13.7 13.7 13.7 13.6 13.5 13.5 13.4 13.4 13.4 13.5 13.5 13.4 13.4 13.5 13.6 13.7 13.8 13.8 13.9 13.9 13.9 14.0 14.0 14.1 14.2 14.3 14.4 14.5 14.6 14.8 14.9 15.0 15.2 15.4 15.7 16.1 16.4 16.4 16.4
14.3 14.2 14.2 14.3 14.2 14.2 14.1 14.0 14.0 13.9 13.9 13.9 14.0 14.1 14.2 14.4 14.4 14.5 14.6 14.7 14.8 14.8 14.8 14.9 14.9 14.9 15.0 15.0 15.0 15.2 15.2 15.4 15.5 15.6 15.7 15.9 16.1 16.4 16.6 16.9 17.1 17.2
14.7 14.7 14.9 14.9 14.9 14.8 14.7 14.7 14.6 14.6 14.6 14.6 14.7 14.9 15.0 15.2 15.3 15.4 15.5 15.4 15.5 15.5 15.5 15.5 15.6 15.7 15.7 15.7 15.7 15.8 15.8 15.9 16.0 16.2 16.4 16.6 16.9 17.2 17.4 17.3 17.3 17.4
15.6 15.7 15.7 15.6 15.6 15.6 15.6 15.7 15.8 15.8 15.8 15.8 15.8 15.9 16.0 16.1 16.3 16.4 16.5 16.6 16.6 16.6 16.7 16.7 16.7 16.8 16.7 16.7 16.7 16.7 16.7 16.7 16.6 16.6 16.7 16.8 17.0 17.4 17.9 18.3 18.3 18.2
16.5 16.6 16.4 16.4 16.5 16.7 16.8 17.0 17.0 16.9 16.9 16.9 17.0 17.0 17.0 17.1 17.3 17.4 17.5 17.7 17.8 17.8 17.9 17.9 17.9 18.0 17.9 17.9 18.0 17.9 17.8 17.7 17.6 17.6 17.6 17.4 17.5 17.8 18.0 18.6 19.0 18.9
17.2 17.2 17.1 17.3 17.5 17.7 17.9 18.0 18.1 18.1 18.1 18.1 18.1 18.0 18.0 18.0 18.0 18.2 18.3 18.3 18.4 18.4 18.4 18.6 18.7 18.9 18.9 19.0 17.6 17.3 17.1 17.1 17.2 17.5 17.9 18.2 18.4 18.5 18.4 18.4 18.6 18.6
18.1 18.1 18.2 18.5 18.6 18.7 18.9 18.9 19.1 19.2 19.1 19.1 19.2 19.0 19.1 19.0 18.9 19.0 19.1 18.9 18.9 18.9 18.9 19.1 19.2 19.4 19.6 17.9 16.5 16.0 16.9 17.3 17.4 17.4 17.0 17.1 17.4 17.9 18.3 17.9 17.8 17.8
19.1 19.2 19.4 19.5 19.5 19.6 19.7 19.7 19.8 19.9 19.9 19.9 19.9 19.8 19.8 19.7 19.6 19.7 19.9 19.8 19.7 19.7 19.8 19.9 20.0 20.0 19.8 17.9 17.0 16.3 16.6 17.7 18.0 18.2 18.1 18.2 18.1 18.2 17.9 17.6 17.5 17.4
20.1 20.3 20.4 20.4 20.5 20.5 20.4 20.5 20.5 20.5 20.5 20.5 20.5 20.6 20.5 20.5 20.5 20.6 20.7 20.8 20.8 20.8 20.9 21.0 21.1 21.1 20.1 18.3 17.5 17.1 16.8 17.9 18.6 18.8 19.1 19.0 18.9 19.0 18.9 18.7 18.4 18.1
21.1 21.3 21.3 21.3 21.4 21.2 21.0 21.1 21.0 21.0 21.2 21.3 21.4 21.6 21.5 21.4 21.4 21.4 21.6 21.7 21.8 21.8 21.9 22.0 22.2 22.3 20.6 18.8 18.3 17.8 17.6 17.6 19.6 20.0 20.4 20.5 20.6 20.3 20.0 19.8 19.5 19.2
22.2 22.2 22.1 21.9 21.8 21.7 21.6 21.7 21.7 21.9 22.1 22.1 22.2 22.4 22.3 22.3 22.3 22.2 22.4 22.5 22.7 22.9 22.9 22.9 23.2 22.1 21.0 19.7 19.0 18.6 18.0 18.8 20.9 21.6 21.9 22.1 21.6 21.4 21.1 20.7 20.3 19.9
22.6 22.6 22.6 22.5 22.5 22.5 22.6 22.6 22.6 22.6 22.6 22.6 22.7 22.9 22.9 23.0 23.3 23.5 23.6 23.6 23.8 24.0 23.9 23.8 23.9 22.7 21.7 20.8 19.8 19.3 18.5 21.1 22.5 23.4 23.5 23.6 23.7 23.4 22.9 22.4 22.1 21.7
22.8 22.8 22.8 22.8 22.8 22.8 22.8 22.8 22.9 23.0 23.1 23.1 23.3 23.6 23.8 24.0 24.3 24.5 24.5 24.6 24.7 24.8 24.8 24.6 24.5 24.3 22.7 22.1 21.3 19.6 20.2 22.4 23.7 24.5 24.4 24.4 24.4 24.5 24.4 23.6 22.8 22.3
23.0 23.0 23.1 23.2 23.3 23.4 23.5 23.6 23.8 23.9 24.1 24.2 24.4 24.5 24.8 25.0 25.2 25.3 25.2 25.4 25.5 25.5 25.5 25.4 25.2 25.3 23.5 23.3 22.1 20.4 21.0 23.4 24.9 25.7 25.5 25.4 25.3 25.3 25.2 24.7 24.0 21.6
23.6 23.7 23.9 24.0 24.2 24.3 24.5 24.7 24.9 25.1 25.3 25.4 25.6 25.6 25.7 26.0 26.2 26.1 26.0 26.1 26.2 26.1 25.4 26.1 26.0 26.2 24.6 24.3 23.1 21.4 22.0 24.8 25.9 27.0 26.8 26.4 26.3 26.1 25.9 25.4 24.9 23.3
24.6 24.8 24.9 25.1 25.2 25.3 25.5 25.8 26.0 26.1 26.2 26.5 26.7 26.8 26.9 26.8 26.9 26.9 26.8 26.8 26.8 26.8 26.8 26.9 26.9 27.1 27.0 24.8 23.8 22.9 22.3 24.7 27.5 28.2 28.0 27.7 27.4 26.9 26.8 26.3 25.5 25.3